When you browse on this site, cookies collect data to enhance your experience and personalize the content and advertising you see.
Visit our Privacy Policy to learn more. By continuing to use the site, you agree to this use of cookies and data.
  • In Portugal
  • List of Countries
  • For 7 days
  • Water Temperature
  • Weather Map
  • Weather Widgets
  • user-avatar
    Login

    Hourly Weather Pazdury

    Today, 18 September, Wednesday

    Time Temperature Precipitation Wind Pressure Humidity
    00:00 +6°C° 0.3 mm 5 mps 710 mmHg 88%
    01:00 +5°C° 0 mm 4 mps 710 mmHg 91%
    02:00 +4°C° 0.1 mm 4 mps 710 mmHg 92%
    03:00 +4°C° 0.1 mm 4 mps 711 mmHg 92%
    04:00 +3°C° 0.1 mm 5 mps 711 mmHg 92%
    05:00 +3°C° 0.1 mm 5 mps 711 mmHg 91%
    06:00 +3°C° 0.1 mm 5 mps 712 mmHg 89%
    07:00 +3°C° 0.1 mm 6 mps 713 mmHg 88%
    08:00 +5°C° 0 mm 5 mps 713 mmHg 87%
    09:00 +5°C° 0 mm 5 mps 714 mmHg 86%
    10:00 +5°C° 0 mm 5 mps 715 mmHg 85%
    11:00 +6°C° 0.1 mm 5 mps 715 mmHg 80%
    12:00 +7°C° 0.1 mm 5 mps 715 mmHg 74%
    13:00 +8°C° 0.1 mm 5 mps 715 mmHg 69%
    14:00 +8°C° 0 mm 5 mps 715 mmHg 68%
    15:00 +10°C° 0 mm 4 mps 715 mmHg 66%
    16:00 +10°C° 0 mm 4 mps 715 mmHg 65%
    17:00 +8°C° 0 mm 4 mps 715 mmHg 69%
    18:00 +7°C° 0 mm 3 mps 715 mmHg 74%
    19:00 +6°C° 0 mm 2 mps 715 mmHg 78%
    20:00 +6°C° 0 mm 2 mps 716 mmHg 78%
    21:00 +6°C° 0 mm 2 mps 716 mmHg 79%
    22:00 +6°C° 0 mm 2 mps 716 mmHg 80%
    23:00 +5°C° 0 mm 2 mps 716 mmHg 83%

    Tomorrow, 19 September, Thursday

    Time Temperature Precipitation Wind Pressure Humidity
    00:00 +5°C° 0 mm 2 mps 717 mmHg 86%
    01:00 +4°C° 0 mm 2 mps 717 mmHg 89%
    02:00 +4°C° 0 mm 2 mps 717 mmHg 89%
    03:00 +4°C° 0 mm 2 mps 717 mmHg 88%
    04:00 +4°C° 0 mm 2 mps 717 mmHg 87%
    05:00 +5°C° 0 mm 2 mps 717 mmHg 84%
    06:00 +5°C° 0 mm 2 mps 717 mmHg 81%
    07:00 +6°C° 0 mm 2 mps 718 mmHg 79%
    08:00 +7°C° 0 mm 3 mps 718 mmHg 71%
    09:00 +8°C° 0 mm 3 mps 719 mmHg 64%
    10:00 +8°C° 0 mm 4 mps 719 mmHg 56%
    11:00 +10°C° 0 mm 4 mps 719 mmHg 56%
    12:00 +10°C° 0 mm 4 mps 719 mmHg 56%
    13:00 +10°C° 0 mm 3 mps 719 mmHg 55%
    14:00 +10°C° 0 mm 3 mps 719 mmHg 57%
    15:00 +10°C° 0 mm 3 mps 719 mmHg 58%
    16:00 +10°C° 0 mm 3 mps 719 mmHg 59%
    17:00 +8°C° 0 mm 3 mps 718 mmHg 68%
    18:00 +7°C° 0 mm 2 mps 718 mmHg 76%
    19:00 +5°C° 0 mm 2 mps 718 mmHg 84%
    20:00 +5°C° 0.1 mm 2 mps 719 mmHg 85%
    21:00 +5°C° 0.1 mm 2 mps 719 mmHg 87%
    22:00 +4°C° 0.1 mm 2 mps 719 mmHg 88%
    23:00 +4°C° 0 mm 2 mps 719 mmHg 90%

    Day after tomorrow, 20 September, Friday

    Time Temperature Precipitation Wind Pressure Humidity
    00:00 +4°C° 0 mm 2 mps 719 mmHg 91%
    01:00 +3°C° 0 mm 2 mps 719 mmHg 93%
    02:00 +3°C° 0 mm 2 mps 719 mmHg 93%
    03:00 +4°C° 0 mm 1 mps 719 mmHg 94%
    04:00 +4°C° 0 mm 1 mps 719 mmHg 94%
    05:00 +5°C° 0 mm 1 mps 719 mmHg 92%
    06:00 +5°C° 0 mm 1 mps 719 mmHg 89%
    07:00 +6°C° 0 mm 1 mps 720 mmHg 86%
    08:00 +7°C° 0 mm 2 mps 720 mmHg 76%
    09:00 +9°C° 0 mm 2 mps 720 mmHg 66%
    10:00 +12°C° 0 mm 2 mps 721 mmHg 56%
    11:00 +12°C° 0.1 mm 2 mps 721 mmHg 56%
    12:00 +13°C° 0.1 mm 2 mps 720 mmHg 56%
    13:00 +13°C° 0.1 mm 2 mps 720 mmHg 55%
    14:00 +13°C° 0.1 mm 2 mps 720 mmHg 58%
    15:00 +13°C° 0.1 mm 2 mps 720 mmHg 60%
    16:00 +12°C° 0.1 mm 2 mps 719 mmHg 62%
    17:00 +9°C° 0 mm 2 mps 719 mmHg 70%
    18:00 +9°C° 0 mm 1 mps 719 mmHg 78%
    19:00 +7°C° 0 mm 1 mps 719 mmHg 86%
    20:00 +6°C° 0 mm 1 mps 719 mmHg 87%
    21:00 +6°C° 0 mm 1 mps 720 mmHg 88%
    22:00 +5°C° 0 mm 1 mps 720 mmHg 89%
    23:00 +5°C° 0 mm 1 mps 720 mmHg 89%

    21 September, Saturday

    Time Temperature Precipitation Wind Pressure Humidity
    00:00 +5°C° 0 mm 1 mps 720 mmHg 89%
    01:00 +5°C° 0 mm 1 mps 720 mmHg 90%
    02:00 +5°C° 0 mm 1 mps 720 mmHg 90%
    03:00 +4°C° 0 mm 1 mps 720 mmHg 90%
    04:00 +4°C° 0 mm 1 mps 720 mmHg 89%
    05:00 +5°C° 0 mm 1 mps 720 mmHg 85%
    06:00 +6°C° 0 mm 1 mps 720 mmHg 82%
    07:00 +7°C° 0 mm 1 mps 720 mmHg 78%
    08:00 +9°C° 0 mm 0 mps 720 mmHg 68%
    09:00 +12°C° 0 mm 0 mps 720 mmHg 59%
    10:00 +14°C° 0 mm 0 mps 721 mmHg 50%
    11:00 +15°C° 0 mm 0 mps 721 mmHg 47%
    12:00 +16°C° 0 mm 0 mps 720 mmHg 44%
    13:00 +17°C° 0 mm 0 mps 720 mmHg 41%
    14:00 +17°C° 0 mm 0 mps 720 mmHg 46%
    15:00 +16°C° 0 mm 0 mps 719 mmHg 50%
    16:00 +16°C° 0 mm 0 mps 719 mmHg 55%
    17:00 +14°C° 0 mm 1 mps 719 mmHg 62%
    18:00 +12°C° 0 mm 1 mps 718 mmHg 68%
    19:00 +10°C° 0 mm 1 mps 718 mmHg 75%
    20:00 +9°C° 0 mm 1 mps 718 mmHg 76%
    21:00 +9°C° 0 mm 1 mps 718 mmHg 77%
    22:00 +8°C° 0 mm 1 mps 718 mmHg 78%
    23:00 +8°C° 0 mm 1 mps 718 mmHg 78%

    22 September, Sunday

    Time Temperature Precipitation Wind Pressure Humidity
    00:00 +8°C° 0 mm 1 mps 717 mmHg 78%
    01:00 +7°C° 0 mm 1 mps 717 mmHg 78%
    02:00 +7°C° 0 mm 1 mps 717 mmHg 77%
    03:00 +7°C° 0 mm 1 mps 716 mmHg 77%
    04:00 +7°C° 0 mm 1 mps 716 mmHg 76%
    05:00 +8°C° 0 mm 1 mps 716 mmHg 72%
    06:00 +9°C° 0 mm 1 mps 716 mmHg 69%
    07:00 +9°C° 0 mm 1 mps 716 mmHg 66%
    08:00 +12°C° 0 mm 1 mps 716 mmHg 59%
    09:00 +15°C° 0 mm 1 mps 716 mmHg 51%
    10:00 +18°C° 0 mm 1 mps 716 mmHg 44%
    11:00 +19°C° 0 mm 1 mps 716 mmHg 42%
    12:00 +20°C° 0 mm 1 mps 715 mmHg 40%
    13:00 +22°C° 0 mm 1 mps 715 mmHg 38%
    14:00 +21°C° 0 mm 1 mps 714 mmHg 44%
    15:00 +21°C° 0 mm 1 mps 714 mmHg 49%
    16:00 +20°C° 0 mm 1 mps 713 mmHg 54%
    17:00 +18°C° 0 mm 1 mps 713 mmHg 59%
    18:00 +14°C° 0 mm 1 mps 713 mmHg 64%
    19:00 +12°C° 0 mm 1 mps 712 mmHg 69%
    20:00 +12°C° 0 mm 1 mps 712 mmHg 67%
    21:00 +12°C° 0 mm 1 mps 712 mmHg 66%
    22:00 +11°C° 0 mm 1 mps 712 mmHg 65%
    23:00 +11°C° 0 mm 1 mps 712 mmHg 64%

    23 September, Monday

    Time Temperature Precipitation Wind Pressure Humidity
    00:00 +11°C° 0 mm 1 mps 711 mmHg 63%
    01:00 +11°C° 0 mm 1 mps 711 mmHg 63%
    02:00 +11°C° 0 mm 1 mps 711 mmHg 64%
    03:00 +11°C° 0 mm 1 mps 710 mmHg 65%
    04:00 +11°C° 0 mm 1 mps 710 mmHg 65%
    05:00 +11°C° 0 mm 1 mps 710 mmHg 66%
    06:00 +12°C° 0 mm 1 mps 710 mmHg 67%
    07:00 +13°C° 0 mm 1 mps 710 mmHg 68%
    08:00 +15°C° 0 mm 1 mps 710 mmHg 63%
    09:00 +18°C° 0 mm 1 mps 711 mmHg 58%
    10:00 +21°C° 0 mm 1 mps 711 mmHg 53%
    11:00 +21°C° 0 mm 1 mps 711 mmHg 53%
    12:00 +21°C° 0 mm 1 mps 710 mmHg 53%
    13:00 +22°C° 0 mm 1 mps 710 mmHg 53%
    14:00 +20°C° 0 mm 1 mps 710 mmHg 58%
    15:00 +19°C° 0 mm 1 mps 710 mmHg 64%
    16:00 +18°C° 0 mm 1 mps 710 mmHg 69%
    17:00 +16°C° 0 mm 1 mps 709 mmHg 72%
    18:00 +15°C° 0 mm 1 mps 709 mmHg 74%
    19:00 +14°C° 0 mm 1 mps 709 mmHg 76%
    20:00 +14°C° 0 mm 1 mps 710 mmHg 77%
    21:00 +14°C° 0 mm 1 mps 710 mmHg 79%
    22:00 +14°C° 0 mm 1 mps 710 mmHg 80%
    23:00 +13°C° 0.4 mm 1 mps 710 mmHg 85%
    Show more